GFSSGP_250_rhum_024.txt.gz
RH
16 39 86 53 82 85 86 96 89 72 59 73 81 42 51 54 71 77 81 100 90 88 18 20 26 73 100 66 45 53 67 39 19 16 20 20 31 35 41 26 23 21 45 59 49 66 86 81 74
18 24 63 51 41 65 86 50 54 34 52 50 89 41 58 64 70 78 85 92 100 44 19 25 50 73 59 46 42 44 26 20 17 24 23 31 41 38 21 25 47 38 48 52 66 59 100 94 73
21 27 55 67 52 51 48 39 40 39 64 50 44 54 55 76 65 82 100 100 86 14 24 27 27 33 41 28 30 28 19 16 23 28 31 40 40 38 22 51 37 36 51 81 60 52 56 58 85
21 21 42 72 72 58 56 52 70 97 97 83 79 75 73 68 55 91 98 100 46 15 21 23 29 38 24 17 18 17 15 20 26 28 40 50 38 26 19 38 22 28 45 84 77 64 79 100 100
16 19 22 48 75 75 88 94 100 100 99 65 44 52 52 63 79 97 100 83 16 12 19 16 23 31 12 10 13 13 15 24 23 39 56 56 40 24 32 32 23 29 38 51 57 64 97 89 90
15 14 23 26 27 31 34 49 74 84 72 28 53 42 40 39 79 96 100 73 30 14 11 10 22 12 16 14 10 11 15 25 43 61 78 70 45 31 30 35 32 29 31 34 35 32 32 45 51
13 13 15 19 19 23 25 26 25 27 27 29 37 36 38 39 89 79 94 66 35 14 9 12 11 9 22 8 10 16 23 46 64 76 100 84 42 41 30 54 42 35 34 30 31 29 30 34 49
10 10 11 12 18 20 23 24 23 22 28 41 40 41 51 75 100 70 76 74 26 12 10 12 8 9 7 12 25 21 50 62 71 75 92 97 43 52 42 32 46 38 38 33 31 26 26 30 34
8 8 8 8 10 17 18 21 19 17 19 23 42 58 87 85 92 56 29 31 18 10 12 8 10 6 10 26 26 47 60 69 70 82 77 43 50 48 43 30 25 30 29 32 25 26 26 27 36
8 9 8 9 9 11 15 16 13 12 14 26 26 18 22 56 50 30 8 17 16 10 13 8 9 9 16 34 46 72 61 58 68 44 38 46 48 46 45 40 34 30 28 34 34 34 39 37 41
8 8 8 9 9 9 9 9 10 17 28 28 29 27 29 37 13 7 16 19 15 12 9 10 7 14 24 52 66 86 62 44 34 32 42 32 30 36 49 41 29 29 27 32 33 61 50 43 48
10 10 11 13 17 19 23 27 25 23 22 12 7 7 8 8 17 27 27 22 11 11 7 10 11 17 27 52 76 38 33 30 32 36 38 22 17 18 18 19 21 21 22 30 40 56 39 49 48
9 12 17 20 19 15 12 11 9 8 8 9 8 7 9 24 36 39 27 18 26 12 8 10 12 18 31 42 38 24 23 27 41 29 18 14 13 21 20 22 23 24 38 65 52 24 22 24 46
12 12 11 11 12 11 11 11 11 10 10 16 14 16 32 46 43 34 20 32 26 11 9 8 12 23 29 32 20 19 21 25 33 31 17 21 23 25 25 23 56 100 57 36 36 20 16 15 19
11 12 12 13 13 14 14 13 11 10 18 18 18 43 66 50 46 26 31 40 25 8 12 11 14 27 28 19 18 20 22 25 34 22 31 38 24 25 46 32 49 99 41 38 34 18 14 13 13
18 12 11 13 14 14 14 12 11 15 23 16 24 60 68 63 54 31 35 39 23 8 14 12 20 25 21 17 18 20 21 25 40 55 68 60 28 28 78 37 30 82 37 32 30 25 16 15 14
23 14 12 14 15 17 17 15 14 28 30 21 20 60 66 58 52 35 33 42 18 9 13 14 26 22 18 17 20 21 23 23 25 33 40 27 27 28 57 76 43 26 47 50 34 21 20 18 16
14 20 21 19 18 17 18 18 16 36 43 26 25 33 46 49 50 43 41 36 12 12 14 16 28 19 18 18 23 23 25 29 27 25 26 26 29 28 44 99 29 34 39 57 40 23 22 21 22
18 18 35 32 24 22 19 18 17 22 43 38 39 39 34 38 45 47 43 26 10 13 14 18 30 20 19 20 24 22 22 27 26 25 26 26 28 26 26 95 24 22 51 31 32 26 26 26 25
13 16 34 50 36 29 25 21 19 17 37 44 32 49 39 38 47 48 46 22 12 19 17 21 29 23 23 29 28 24 23 21 22 24 26 26 28 26 23 98 39 32 41 34 46 39 26 31 32
10 11 18 49 49 34 32 27 24 19 24 56 38 29 36 35 34 33 40 15 16 20 21 31 28 26 26 27 32 29 21 18 20 22 23 24 24 23 23 50 45 49 23 39 36 33 30 32 33
9 9 10 15 39 41 37 35 28 24 19 33 32 12 24 34 22 18 14 15 14 23 30 37 29 30 29 27 21 21 19 18 18 21 21 22 23 23 24 24 38 38 28 35 34 30 30 32 34
11 10 10 11 18 26 31 40 40 31 25 19 23 12 11 12 8 9 12 12 23 26 34 39 39 35 30 25 18 14 16 18 19 19 20 22 22 22 22 30 45 29 34 27 28 29 31 34 33
12 11 9 9 11 20 54 54 48 44 30 23 18 14 9 9 8 8 12 22 24 36 39 35 50 37 34 33 24 23 17 13 14 16 17 18 19 22 22 21 27 42 28 27 26 27 28 30 31
16 13 10 9 10 16 35 48 56 50 34 29 18 15 10 9 10 9 12 18 29 34 34 35 63 65 54 36 30 34 34 23 15 12 13 15 17 19 20 22 23 21 22 23 23 24 25 27 28
15 14 11 13 11 11 11 30 39 48 30 30 23 16 12 10 12 9 9 12 31 38 44 46 61 53 38 30 27 29 30 25 20 16 13 13 16 18 18 19 20 21 22 23 22 23 22 23 26
16 18 21 15 12 13 12 13 24 38 32 35 34 24 16 11 11 6 5 12 28 41 45 49 52 40 38 33 28 26 24 23 22 18 20 24 26 21 19 20 19 20 22 22 24 24 23 23 25
20 20 15 21 25 30 23 13 16 33 40 42 32 34 22 12 13 9 7 9 20 17 17 27 37 51 38 32 30 31 30 27 26 26 26 27 30 31 29 28 21 19 20 22 23 24 24 25 27
23 18 21 28 37 35 29 18 11 12 35 47 42 41 30 16 16 15 13 10 7 6 19 26 33 41 33 33 36 34 36 37 39 37 34 32 33 41 36 37 34 21 19 20 21 22 24 25 27
23 21 22 23 37 41 27 20 12 11 16 41 46 39 36 26 14 19 15 15 17 16 17 16 20 25 26 28 32 35 42 44 44 44 39 38 33 49 70 30 31 24 20 21 21 22 25 27 29

GFSSGP_250_rhum_027.txt.gz
RH
49 46 51 70 92 99 88 100 100 97 80 68 61 69 76 57 54 66 57 100 100 100 28 16 27 36 93 93 57 41 36 21 16 30 48 39 48 23 60 64 33 54 56 46 54 58 69 61 82
20 36 71 84 94 100 99 73 94 86 83 71 61 48 64 66 52 54 69 93 100 82 15 20 39 35 37 47 30 27 20 14 28 45 45 30 32 30 34 38 39 51 56 50 73 100 84 61 77
19 23 66 87 89 87 93 99 96 92 75 54 64 62 72 72 77 69 83 95 99 37 13 20 20 30 43 21 21 18 14 21 40 46 49 28 25 26 20 23 29 71 54 52 43 51 58 84 75
22 22 36 49 83 79 66 75 100 77 46 61 95 93 64 59 59 55 81 77 95 79 25 15 19 25 31 16 13 15 15 28 36 56 54 30 32 31 18 23 39 76 60 46 55 73 99 90 91
23 24 30 31 62 80 78 66 61 70 60 86 100 95 56 48 59 53 69 75 79 70 22 11 19 21 12 19 15 12 16 27 49 66 47 36 32 28 23 22 27 37 48 42 34 38 52 68 54
26 27 52 42 51 68 76 70 76 79 85 93 75 54 33 40 41 47 77 93 64 64 24 13 11 9 21 12 11 12 29 46 68 78 55 38 31 37 29 28 28 29 31 29 32 36 42 31 34
17 43 93 31 31 40 62 62 52 45 33 32 28 24 37 42 39 64 90 96 60 25 14 12 9 10 10 9 13 35 49 50 59 66 63 36 44 29 33 28 29 30 29 25 26 28 33 37 38
16 16 20 22 20 24 24 28 27 28 31 26 21 21 22 55 60 77 77 71 46 17 12 13 8 8 9 17 24 48 48 44 55 58 40 46 42 28 29 30 27 29 25 28 29 30 35 39 46
11 13 14 14 15 14 16 18 22 24 26 23 18 13 19 27 25 23 36 48 20 16 11 10 9 7 17 24 48 51 47 43 49 39 45 44 68 53 31 25 25 24 25 26 32 40 38 36 37
9 10 65 19 9 8 9 23 13 16 17 17 11 17 25 28 28 28 33 18 13 15 13 9 7 10 24 38 57 53 38 35 31 44 40 70 35 29 21 20 22 27 31 30 45 52 41 45 32
8 10 100 36 10 8 9 11 11 10 10 9 14 26 26 19 16 14 9 11 19 12 11 9 9 17 28 57 76 46 33 31 38 36 24 18 20 16 32 20 27 26 35 44 62 43 47 48 54
8 14 96 23 10 8 11 9 9 10 11 14 16 9 8 8 8 9 14 22 16 11 9 9 12 26 44 70 76 33 29 32 34 24 15 19 26 17 21 25 40 66 54 43 35 21 22 42 57
11 10 11 10 10 12 13 15 27 13 10 8 8 10 14 13 13 15 26 19 14 10 10 9 16 26 66 67 40 23 27 33 22 14 17 23 20 23 48 67 52 48 86 38 14 13 14 16 29
15 14 12 12 14 14 12 11 10 11 12 11 11 16 14 18 26 27 22 25 32 12 10 11 18 33 45 36 20 20 33 36 18 20 21 25 22 39 77 46 35 24 19 16 16 26 15 13 13
16 16 16 15 14 13 12 13 14 13 11 10 12 12 22 39 38 29 17 38 31 10 10 12 19 35 35 18 20 22 30 26 24 27 21 28 54 34 69 41 29 28 22 19 16 16 17 16 14
12 17 20 18 16 17 16 14 14 13 11 11 15 12 34 49 39 29 32 41 27 9 10 12 24 32 22 18 22 23 32 23 37 46 24 34 66 58 35 37 51 45 28 20 18 17 18 19 18
14 14 14 26 23 18 18 18 16 15 16 17 18 11 33 51 44 32 36 40 22 10 10 16 28 29 18 19 20 23 33 47 38 26 22 29 63 84 47 36 48 53 34 23 22 21 20 18 20
14 10 14 23 28 27 22 19 18 17 18 23 25 14 23 42 47 41 32 40 16 11 12 16 33 24 17 20 21 21 26 31 26 23 22 22 55 74 35 33 49 44 46 31 25 26 26 29 26
15 14 14 19 24 36 31 21 20 18 19 22 29 20 20 38 38 37 34 39 14 12 12 16 33 22 18 22 22 25 24 21 21 23 23 20 22 66 83 43 43 51 53 47 36 28 26 29 34
18 17 16 20 21 30 39 30 23 21 19 21 32 33 18 33 38 38 38 34 16 13 13 18 34 21 18 24 21 20 23 21 22 22 23 20 20 45 100 45 30 51 72 39 31 24 35 32 36
15 15 14 14 16 20 31 39 32 25 21 20 26 46 20 23 27 26 32 30 16 13 15 20 34 21 20 24 23 22 19 20 21 22 21 20 19 20 100 55 42 24 51 95 35 27 30 33 32
10 13 13 11 11 14 17 41 38 32 26 25 21 33 23 24 27 35 32 37 18 15 18 22 36 22 24 33 27 23 17 17 19 20 20 20 19 20 28 62 37 51 29 51 66 27 30 30 30
8 9 9 9 9 10 11 24 46 41 33 30 23 20 22 19 25 28 34 36 14 19 20 23 40 25 29 29 23 20 18 18 18 19 21 21 24 19 19 40 54 36 25 34 26 33 26 27 28
9 10 10 10 10 10 11 27 53 48 42 34 31 20 20 9 13 13 25 30 15 20 23 36 32 30 33 25 17 14 14 14 16 18 18 18 19 21 22 22 27 30 24 22 25 22 23 24 25
9 10 10 9 11 12 12 13 58 56 49 42 39 26 18 10 8 9 9 22 17 15 23 36 33 41 30 27 20 21 23 20 16 13 14 14 16 18 20 20 35 22 22 22 22 23 24 24 24
11 10 10 14 12 13 10 9 19 45 52 47 43 32 20 12 10 9 8 12 15 16 26 36 37 47 31 35 32 29 29 40 37 22 17 13 13 15 19 19 20 20 20 21 22 22 23 25 25
12 11 19 12 14 14 14 11 10 19 39 40 46 35 29 16 11 10 11 11 14 20 33 40 40 60 68 60 45 40 35 37 35 27 21 15 16 20 24 23 22 21 19 19 20 21 21 23 25
11 18 10 12 20 26 19 15 11 10 26 27 42 37 39 24 12 10 13 13 14 19 35 40 41 71 66 56 42 30 29 31 30 27 22 24 27 27 25 28 32 34 25 18 18 19 20 22 24
17 12 15 20 25 32 25 20 12 9 12 32 48 49 43 36 19 11 11 14 10 16 34 44 50 54 52 40 38 35 29 30 29 29 32 36 41 38 31 31 59 57 33 27 18 18 19 20 23
16 14 19 25 40 50 44 27 16 10 10 20 43 50 48 42 30 13 11 11 8 14 26 35 41 49 48 48 45 36 29 29 27 34 37 35 31 30 30 25 54 92 60 36 26 21 20 21 25

GFSSGP_250_rhum_030.txt.gz
RH
48 45 61 38 89 100 83 92 100 100 100 84 52 62 67 57 41 70 56 80 100 100 90 41 21 35 70 37 22 19 16 20 48 44 29 26 27 22 30 46 61 58 50 43 51 63 58 67 76
46 48 61 60 90 100 100 92 100 100 100 99 74 83 63 67 72 56 58 66 83 68 88 44 22 25 36 26 17 15 16 42 48 35 28 22 17 14 23 35 55 56 47 55 100 74 50 70 92
33 40 66 94 97 100 100 99 93 71 81 82 67 67 80 89 65 52 53 61 69 78 66 41 13 20 28 17 12 14 41 47 48 29 33 24 19 18 19 33 52 49 45 45 49 60 100 100 70
22 27 60 96 98 80 100 100 100 89 84 76 71 61 95 97 86 43 51 47 65 85 55 21 15 17 13 14 13 20 42 40 48 35 33 27 22 16 27 58 59 50 47 50 67 47 42 39 30
26 34 33 38 52 72 69 59 76 68 58 66 60 55 85 75 28 27 40 44 66 85 52 19 12 16 16 13 12 29 26 47 51 44 33 35 21 16 22 36 44 41 28 32 42 32 28 27 28
30 29 38 39 65 39 33 35 60 54 63 70 64 81 66 33 24 28 39 56 62 60 46 18 12 10 14 9 14 25 45 52 41 41 39 28 29 20 24 22 22 20 21 27 30 34 42 40 30
28 95 100 100 100 97 43 39 63 72 76 76 79 48 29 25 20 20 59 42 32 40 37 15 10 12 8 11 30 43 42 30 24 30 27 19 23 23 22 28 26 26 27 30 31 29 36 35 20
21 71 100 100 100 79 44 32 33 64 70 42 41 37 28 23 18 14 25 23 32 32 14 12 9 13 10 26 50 47 37 22 27 30 33 32 50 34 25 24 28 24 28 32 35 32 37 30 24
13 24 60 70 77 35 22 20 18 21 25 23 21 22 21 17 13 21 23 30 28 15 15 12 9 8 21 39 53 39 24 22 31 83 100 99 98 100 18 20 21 23 25 37 52 41 42 44 29
11 12 22 31 45 21 15 12 12 12 29 29 13 17 15 10 15 18 16 19 11 19 14 9 7 12 26 51 45 31 23 24 57 95 100 59 41 22 18 22 30 32 35 29 28 32 40 51 45
6 8 15 26 47 100 86 19 8 8 19 12 11 10 9 10 8 9 9 8 12 21 12 9 10 19 32 60 45 28 20 29 34 100 96 100 36 23 33 38 29 32 18 21 18 25 43 45 29
8 10 96 94 52 94 68 67 70 13 14 10 11 12 9 9 10 14 13 12 26 14 10 9 15 24 42 54 51 22 23 25 14 15 44 91 44 52 41 49 62 100 100 17 21 14 20 21 15
9 8 10 81 99 91 24 77 44 70 96 15 8 11 11 14 13 14 20 28 20 11 9 10 19 29 46 67 30 20 24 21 13 22 42 76 51 49 36 31 37 100 100 64 86 18 14 16 15
10 10 10 77 51 9 10 11 9 69 22 11 12 12 12 12 13 20 29 27 13 10 9 15 26 36 62 52 20 22 22 14 15 19 24 61 61 38 28 21 21 18 34 51 84 16 16 20 24
11 11 12 11 12 13 12 11 11 30 14 11 11 12 11 10 17 30 35 32 27 12 9 19 28 44 39 19 19 24 22 18 20 27 34 59 50 35 35 44 28 30 21 20 18 19 23 23 35
10 12 13 15 15 15 15 16 14 14 14 13 13 13 15 11 25 34 18 33 30 11 10 17 39 40 31 19 19 23 20 24 21 35 38 33 38 52 49 31 30 21 21 22 19 20 21 24 25
14 16 11 16 19 21 19 17 15 16 15 15 14 18 17 13 25 34 22 34 26 9 10 18 37 32 18 20 20 21 24 27 24 39 53 42 36 40 43 48 54 29 26 29 25 25 27 24 30
14 12 13 18 23 24 26 25 21 17 18 17 14 15 22 14 24 33 30 32 23 8 10 18 37 28 18 20 24 26 34 20 18 36 58 49 26 33 41 43 58 38 29 27 27 28 30 32 35
12 11 12 17 21 22 32 30 28 25 71 100 17 16 22 16 18 36 35 29 21 9 11 20 37 25 19 21 21 29 38 20 17 20 42 61 69 75 71 50 51 58 40 29 39 40 32 32 29
15 15 13 16 19 22 28 36 34 26 98 94 17 50 20 25 18 27 36 28 21 9 12 21 38 28 21 24 23 20 19 19 18 19 20 30 100 74 38 33 72 97 58 34 26 31 38 31 28
21 19 16 15 16 17 20 23 28 32 26 22 19 18 17 31 20 24 38 28 27 10 12 20 39 38 20 26 24 24 21 19 19 18 17 19 46 100 82 35 52 86 78 68 31 28 28 27 27
23 21 20 18 18 18 16 17 25 34 32 28 26 16 100 31 20 23 28 33 27 11 12 17 38 26 19 26 23 20 19 19 19 18 18 19 21 42 54 48 33 44 56 43 42 24 26 24 25
25 23 21 16 12 15 16 15 18 28 35 34 28 19 83 19 20 19 17 25 30 11 12 18 37 23 19 26 24 24 19 18 19 19 20 20 20 20 21 74 35 36 24 43 46 30 21 21 22
29 23 15 10 10 10 12 12 12 20 32 38 34 27 20 18 18 20 24 23 37 14 13 20 36 24 21 29 30 25 18 18 18 18 19 19 20 20 21 22 27 32 25 28 34 35 23 24 26
29 23 13 10 9 11 10 10 11 19 40 42 39 35 23 22 18 11 27 28 34 21 13 18 31 30 24 27 28 18 18 17 17 18 17 16 17 18 18 19 30 22 22 27 21 21 23 24 24
24 22 17 11 11 10 8 8 8 8 12 31 35 40 30 28 19 12 10 21 33 26 14 18 35 28 26 31 20 18 16 17 25 23 14 13 13 14 16 19 19 19 19 19 19 20 22 22 22
27 22 18 14 9 8 9 9 7 8 9 14 20 41 39 34 25 15 8 8 14 19 16 20 34 30 34 32 24 20 23 23 33 39 26 20 18 14 15 20 23 22 22 23 22 19 18 19 21
22 19 15 13 12 11 12 12 11 9 10 15 29 44 43 40 33 19 11 8 9 15 17 22 37 39 45 34 38 40 34 32 37 38 29 24 20 18 26 26 29 41 66 60 31 26 24 20 20
21 17 12 14 13 17 15 14 12 9 9 12 19 44 48 47 36 24 14 10 10 12 17 22 34 41 48 41 48 49 43 40 30 30 27 25 22 27 25 29 31 30 46 92 85 73 42 28 24
24 17 14 14 20 31 28 18 14 11 10 10 14 31 55 50 46 32 22 11 12 10 18 24 32 38 55 73 70 58 44 34 28 28 28 25 29 29 34 34 36 34 35 31 29 35 25 26 28

GFSSGP_250_rhum_033.txt.gz
RH
39 54 54 38 99 86 94 63 83 100 80 100 91 76 61 71 75 79 59 48 50 67 78 77 30 16 36 36 19 16 28 47 34 24 22 16 12 24 47 61 50 54 47 53 73 64 56 72 69
38 41 45 57 65 100 100 100 100 100 100 100 100 100 95 81 90 100 69 26 42 67 64 72 23 16 37 28 15 19 40 36 30 25 19 13 14 34 41 69 50 52 58 100 85 56 72 84 71
47 45 54 71 92 100 100 93 100 100 100 90 48 66 75 73 64 90 27 23 34 53 63 59 25 19 30 18 15 33 43 36 32 25 17 13 18 26 55 68 57 51 80 57 50 70 91 75 54
34 40 70 86 96 80 95 90 100 100 83 63 51 53 58 68 64 85 28 24 29 54 55 47 23 21 20 14 16 40 27 43 32 26 18 12 18 25 40 52 48 53 52 56 44 30 27 27 22
25 50 65 83 86 96 98 100 100 98 100 82 63 57 68 71 70 47 26 25 25 57 32 34 20 22 17 11 19 25 34 50 35 27 26 15 17 20 24 28 25 28 36 31 28 24 19 21 20
22 28 37 35 55 89 80 78 63 62 35 75 58 61 72 77 56 34 25 22 18 37 30 29 16 10 12 10 22 33 35 35 39 26 26 19 18 22 23 21 22 26 31 31 33 30 20 16 20
29 34 91 100 100 84 98 90 53 36 40 49 54 53 76 45 37 29 22 18 20 30 29 13 13 11 9 18 33 37 24 32 29 26 28 40 24 22 25 25 27 30 35 34 38 38 26 23 16
28 29 100 95 100 84 100 84 91 51 43 44 35 27 25 26 19 18 18 15 23 26 18 15 11 13 13 28 37 32 21 25 52 100 100 93 97 23 21 24 24 29 41 56 42 47 35 31 22
16 57 100 100 100 94 99 99 82 34 19 26 39 33 19 20 13 14 10 12 12 11 9 14 9 10 28 31 35 24 17 100 85 100 85 48 27 43 40 31 32 34 38 32 43 46 51 36 27
16 26 100 98 100 100 80 85 41 56 30 21 9 9 10 10 10 10 10 9 11 10 12 11 8 17 30 31 34 19 32 99 71 99 100 32 29 32 27 28 21 27 17 17 28 33 26 21 17
13 35 28 44 73 67 48 35 55 98 55 37 9 12 10 9 9 10 11 13 14 11 16 9 9 23 30 37 34 17 51 97 68 98 80 54 39 56 100 98 38 38 24 20 17 16 15 17 17
8 7 24 23 20 21 17 23 67 80 58 37 42 27 10 10 10 15 14 11 13 17 12 8 17 22 39 53 24 20 17 70 95 100 94 74 43 52 100 80 63 92 76 22 20 16 21 22 32
8 8 7 8 13 13 12 14 83 84 76 35 62 9 10 11 14 14 10 17 28 16 9 10 18 26 51 54 19 20 13 27 99 66 34 52 28 42 75 98 62 66 20 21 21 24 26 30 37
9 8 8 10 11 20 66 61 52 54 35 45 16 10 9 13 15 11 24 37 28 11 9 10 22 34 55 35 19 21 12 17 56 62 52 38 44 50 63 53 42 36 20 26 32 34 31 31 35
10 11 9 8 8 29 100 10 10 11 12 21 23 9 11 17 14 27 44 30 13 10 9 11 26 48 37 19 20 17 16 18 39 56 46 36 37 32 46 37 22 20 24 26 30 41 47 43 45
12 11 12 9 10 24 32 12 11 10 10 12 12 12 17 20 12 31 30 27 26 11 10 11 30 37 21 19 23 18 20 29 38 44 42 39 36 67 55 37 28 27 26 25 26 26 33 35 56
13 13 11 11 13 14 12 12 10 11 11 28 77 12 12 24 13 28 21 31 25 12 11 14 32 34 18 19 21 20 22 29 41 34 45 54 47 70 47 44 31 30 25 24 28 26 28 32 44
12 12 11 11 12 14 13 13 13 13 12 94 98 90 53 16 17 29 22 33 30 12 10 17 28 22 19 20 18 25 26 31 46 41 33 38 45 56 81 63 44 29 28 28 28 27 26 27 41
12 12 13 15 14 15 15 17 14 12 11 100 100 95 95 61 14 15 22 32 32 12 10 20 25 18 20 23 21 30 29 26 47 60 28 30 53 73 65 66 52 30 33 37 38 26 25 28 31
14 14 14 15 18 19 18 16 11 12 14 100 100 100 81 100 75 11 21 28 33 14 10 20 25 18 20 23 26 32 24 21 34 63 66 100 80 58 62 96 88 55 33 26 28 30 25 24 28
16 16 15 14 18 19 18 14 13 11 13 99 99 100 82 100 40 13 16 23 32 16 11 20 23 20 24 23 23 26 21 20 22 24 38 100 85 81 39 83 78 46 45 45 24 24 24 23 25
17 20 16 13 14 17 17 17 13 14 13 46 94 100 51 31 49 56 12 22 29 28 12 23 23 22 25 24 26 25 22 20 22 21 20 32 95 100 42 39 44 43 44 45 29 22 21 24 26
26 20 18 16 14 14 15 17 18 18 16 14 15 21 18 40 86 96 18 21 24 35 14 17 26 24 22 26 23 25 24 22 21 22 21 21 23 27 31 64 31 25 36 34 37 27 23 24 26
25 20 18 17 16 14 20 19 18 18 18 16 14 16 9 71 100 48 29 19 22 30 20 13 25 24 20 26 24 22 21 20 20 21 21 22 20 20 20 26 26 29 21 34 22 22 21 22 23
25 20 17 17 20 23 20 20 12 12 15 16 17 18 16 24 91 84 98 47 19 22 29 12 20 20 19 20 26 24 20 18 18 18 19 20 19 19 19 18 24 19 20 19 20 20 21 22 22
33 31 23 29 36 24 22 18 11 10 10 12 14 14 16 18 18 71 68 15 24 23 34 14 16 24 20 20 30 29 20 18 19 19 18 16 15 16 16 18 18 19 20 22 26 26 22 20 19
34 26 31 37 39 32 25 14 10 8 10 12 12 12 15 23 26 16 16 11 17 30 36 20 14 30 22 22 25 32 20 16 14 16 16 13 13 13 12 13 18 22 24 37 61 50 31 30 30
32 35 29 29 32 31 24 15 11 8 9 9 9 9 21 35 32 23 22 14 9 20 34 23 16 27 27 24 28 29 17 17 20 27 32 26 19 16 15 19 28 29 29 34 44 53 54 46 32
33 27 30 28 27 24 22 19 15 9 8 8 9 8 19 34 43 38 28 18 10 9 22 24 18 21 32 26 29 26 18 20 26 27 32 31 24 21 19 29 35 38 33 32 34 32 26 22 21
37 35 39 34 25 25 22 19 15 10 9 8 8 9 10 40 39 47 41 27 14 10 9 18 19 20 31 27 33 33 28 30 32 32 28 27 26 24 24 30 38 40 41 37 32 28 27 22 26

GFSSGP_250_rhum_036.txt.gz
RH
65 56 35 35 100 70 83 89 88 100 99 65 75 94 100 99 82 84 77 75 28 23 30 50 46 26 25 35 14 27 42 32 29 24 15 12 16 34 46 41 50 44 47 69 71 59 63 68 79
47 43 41 40 70 100 80 100 83 85 91 100 100 100 48 55 72 80 74 61 30 23 25 57 30 24 28 24 19 35 36 34 30 19 11 16 29 49 56 52 52 49 82 83 56 73 100 97 71
36 54 45 46 78 100 100 100 100 87 92 100 100 78 61 65 47 71 73 50 29 25 25 43 32 22 24 13 28 40 36 40 24 16 12 19 30 49 60 46 53 57 67 52 44 35 45 44 29
37 47 63 74 90 92 100 87 86 84 100 100 90 87 82 78 69 73 72 46 31 23 22 30 31 19 23 13 26 32 43 42 23 17 14 19 30 44 50 55 60 57 53 31 20 20 20 20 51
46 56 64 91 78 63 76 70 91 94 100 100 94 76 72 80 68 56 54 31 25 20 27 30 21 15 15 13 23 38 52 35 25 19 18 22 26 34 36 32 34 36 34 23 17 17 16 47 70
48 41 65 87 80 88 75 99 100 100 96 99 76 36 32 36 33 29 26 19 19 15 27 22 16 11 10 16 32 39 32 37 27 25 22 23 23 22 25 28 32 34 43 37 30 25 16 23 63
37 37 32 37 67 70 98 100 100 99 78 59 56 48 35 36 42 23 19 13 12 14 15 11 15 13 9 26 34 30 37 32 55 85 73 34 26 30 30 32 39 48 47 43 47 36 23 15 20
23 29 42 36 97 100 100 100 100 97 99 76 42 21 24 27 12 12 10 10 12 12 11 10 13 13 12 31 34 27 37 99 86 77 76 42 47 35 35 38 38 38 44 45 45 29 27 22 15
26 32 44 59 100 100 100 99 95 100 98 58 77 67 34 10 13 10 10 9 10 11 13 14 10 10 26 34 27 32 100 60 74 55 34 42 41 26 24 23 21 22 31 35 25 17 16 28 33
45 40 37 96 60 100 100 100 100 100 100 73 70 56 36 17 13 9 9 12 13 14 12 14 8 13 31 35 23 35 82 64 41 60 35 37 40 30 26 26 19 16 18 18 16 20 29 39 45
19 32 76 94 97 78 94 93 71 100 80 54 59 27 47 15 10 10 12 13 13 15 18 10 10 22 35 34 22 67 86 45 52 46 39 86 90 73 82 41 21 17 15 16 18 23 36 51 44
12 14 17 77 100 100 100 92 97 71 40 16 53 51 41 10 8 9 12 10 14 22 14 8 15 26 48 27 24 50 90 52 55 52 42 57 79 69 66 21 21 24 25 28 29 38 45 49 44
7 7 8 13 19 39 50 47 35 21 15 19 61 56 36 9 9 12 7 13 23 15 10 15 19 36 48 24 24 17 95 73 47 37 33 68 71 65 53 21 21 24 27 29 30 36 46 55 50
8 8 8 8 9 22 21 21 21 14 13 87 86 28 16 9 14 9 7 20 20 13 11 17 27 59 46 24 23 15 87 89 47 40 39 60 51 46 30 23 29 29 33 33 34 37 53 46 50
9 10 9 7 7 8 9 8 24 20 18 14 11 18 9 8 12 8 8 16 12 10 12 20 36 58 34 24 19 17 41 77 48 27 30 59 29 26 27 24 26 30 33 31 33 41 51 52 59
13 11 10 9 7 8 10 23 92 41 10 10 13 14 13 13 12 9 12 17 19 10 13 23 46 37 22 25 16 20 23 61 39 38 33 49 54 36 26 25 41 36 37 36 28 38 38 45 47
14 15 10 11 10 9 8 15 68 44 51 11 40 68 54 50 18 10 13 22 27 10 14 25 29 23 22 27 18 22 33 36 41 38 46 76 74 34 34 29 25 23 28 26 24 25 35 41 45
13 13 11 11 10 10 12 18 20 12 14 12 62 100 100 88 48 24 14 16 29 12 13 30 28 20 22 27 19 22 32 41 47 53 56 79 76 48 39 34 28 32 31 27 25 25 29 36 35
10 11 12 11 11 13 9 14 14 18 13 13 70 88 76 71 59 29 20 16 25 16 10 27 22 20 23 24 26 27 31 39 41 49 50 66 80 64 91 50 34 32 31 32 24 23 28 31 31
12 13 13 12 13 16 14 14 14 13 11 11 53 100 90 95 72 38 14 20 24 20 10 20 18 20 23 21 28 32 31 39 49 32 43 64 72 67 69 64 45 37 32 29 23 22 25 27 30
14 16 15 14 12 16 12 12 13 14 11 10 51 83 81 100 100 55 12 11 23 20 10 18 16 20 25 24 29 33 25 38 62 45 96 73 51 62 76 98 54 38 34 24 22 24 26 27 28
16 20 16 14 11 13 13 11 12 14 11 11 80 100 97 85 68 64 42 31 22 18 11 15 18 19 22 26 31 34 22 23 35 50 76 97 94 48 51 56 40 37 43 37 28 25 26 27 29
20 18 17 15 12 12 13 12 13 13 14 14 16 100 100 100 68 79 91 50 20 26 12 12 23 18 22 22 23 24 21 21 22 23 21 61 76 97 48 37 29 34 30 24 23 22 22 23 24
19 16 16 14 12 10 13 13 13 15 18 14 14 16 38 35 52 39 70 63 13 28 21 12 18 18 20 22 24 25 22 20 21 22 21 21 24 25 33 42 29 23 24 24 21 20 20 21 21
17 16 15 13 11 14 19 15 21 21 18 14 14 16 19 18 16 22 79 66 22 23 31 15 13 20 19 21 23 22 22 20 20 20 20 20 20 20 20 19 36 20 19 19 23 27 24 21 20
19 16 17 18 16 23 25 14 21 20 19 16 16 16 16 18 16 30 100 72 57 19 30 27 15 21 23 20 24 22 21 19 18 19 20 21 20 19 18 18 18 20 22 22 27 32 24 26 28
32 20 22 19 17 20 16 19 16 16 15 15 17 19 14 17 16 16 19 58 81 33 17 35 26 15 26 22 20 24 23 20 18 18 19 18 17 15 14 14 16 19 18 22 39 40 26 24 25
33 35 28 23 21 19 20 22 24 16 18 20 21 11 12 15 15 22 26 27 60 20 21 20 30 16 20 22 19 23 28 25 18 18 18 16 14 14 14 14 16 20 24 26 27 30 30 27 22
25 25 24 24 26 26 25 23 22 12 15 22 18 9 11 25 21 19 29 30 20 14 13 30 36 20 16 26 20 21 31 31 19 16 15 22 26 25 22 20 20 28 27 29 31 32 32 24 21
26 27 31 32 34 30 26 26 20 15 26 28 13 8 9 14 17 18 25 31 29 20 11 25 37 26 14 24 26 22 24 33 19 15 22 27 30 30 26 24 22 27 30 31 30 38 37 30 23

GFSSGP_250_rhum_042.txt.gz
RH
34 52 48 45 99 70 39 61 89 36 89 100 100 100 100 85 100 97 44 39 43 37 30 22 26 22 21 18 22 30 34 17 14 20 18 37 79 58 38 52 41 48 66 78 53 34 36 55 58
31 40 46 58 99 37 70 83 97 76 74 97 100 100 97 100 98 50 41 26 34 29 20 15 18 21 15 16 25 35 25 22 16 22 32 64 87 50 38 47 46 56 30 19 26 20 32 52 83
44 36 37 74 66 65 88 51 94 97 95 100 100 93 87 100 92 49 38 38 25 15 15 16 14 15 16 21 41 35 23 18 23 26 49 74 73 44 48 47 41 22 16 16 16 31 68 61 53
55 42 48 100 60 75 100 79 81 100 100 100 100 97 85 100 83 46 41 35 11 11 11 14 13 12 16 32 35 38 26 36 24 36 56 58 47 44 49 38 30 24 20 17 16 51 60 55 84
51 49 62 95 87 67 100 89 100 94 100 100 77 90 100 99 65 33 23 23 10 10 10 11 17 11 27 31 36 42 32 71 46 22 39 28 29 34 32 34 41 36 22 18 22 36 56 77 65
40 45 72 90 80 73 77 99 100 100 100 95 100 100 100 88 75 33 22 20 12 9 10 10 12 11 30 24 48 56 66 83 81 38 25 28 30 33 37 42 43 30 20 27 42 50 55 65 89
31 41 44 65 69 75 68 96 97 100 100 100 94 96 100 80 67 36 28 28 13 9 10 11 11 15 30 31 63 70 78 76 91 40 36 35 34 38 38 42 25 28 56 56 49 49 68 88 69
28 42 32 47 51 62 75 72 60 100 100 100 100 100 100 85 63 36 29 38 21 10 12 14 11 19 29 37 62 61 48 44 45 61 36 36 31 54 40 22 37 40 46 63 52 53 47 56 62
27 32 32 43 45 45 54 50 44 64 100 99 100 100 100 89 60 44 23 29 16 11 13 13 11 27 27 51 62 62 42 38 25 30 22 17 20 29 23 31 42 48 53 54 62 56 50 58 60
23 24 32 34 40 34 81 71 100 90 97 100 100 100 100 86 61 42 24 14 11 10 14 12 14 29 24 67 62 49 50 62 61 75 28 16 15 19 30 40 50 49 60 58 55 53 49 55 50
23 25 19 24 30 30 49 91 100 100 100 100 100 100 98 88 65 28 11 10 10 15 15 10 25 33 21 68 57 44 52 64 57 49 26 16 16 25 35 46 38 52 51 58 59 46 56 60 47
21 22 24 19 26 30 60 89 69 99 87 77 90 100 98 88 46 12 9 10 10 18 10 11 34 35 20 61 71 49 37 38 50 50 19 19 21 29 42 37 50 46 50 48 52 46 46 51 46
16 20 22 21 24 32 54 70 92 84 76 89 100 100 100 84 22 12 9 11 16 13 9 18 34 33 19 79 75 57 37 52 62 35 22 26 24 26 37 37 43 49 49 50 49 45 46 46 47
10 12 19 21 20 21 31 56 73 90 100 100 100 100 100 57 12 31 10 19 14 9 11 25 35 28 22 71 76 56 41 58 60 24 23 26 31 32 31 34 35 36 40 45 46 42 41 49 47
8 7 8 11 13 16 20 24 37 38 28 94 100 100 78 15 42 44 14 16 11 9 16 24 42 25 21 37 85 42 40 66 36 23 26 28 32 34 34 38 35 37 35 42 38 34 37 43 50
12 12 10 8 8 10 12 12 11 22 68 81 75 49 24 18 56 42 13 12 10 14 19 25 36 22 18 24 66 56 42 55 34 26 26 28 34 42 36 31 26 32 28 33 39 33 35 39 43
15 14 11 11 9 8 8 8 8 7 9 16 22 18 18 40 59 45 16 10 10 14 24 36 41 19 18 32 65 52 36 42 29 32 32 26 28 33 28 27 25 22 24 27 30 30 32 34 38
16 12 8 9 10 8 10 9 7 6 13 35 27 44 24 38 59 50 19 16 11 11 22 33 42 19 19 15 55 58 29 46 37 30 30 28 25 29 46 41 32 20 19 21 24 26 28 30 32
12 12 10 9 10 9 8 9 8 7 11 23 42 38 33 20 50 48 34 18 16 10 14 32 29 19 20 16 26 52 36 43 46 40 35 34 32 32 30 32 36 23 20 21 23 23 25 26 26
11 12 13 12 12 11 10 8 9 8 9 14 29 25 13 25 67 55 51 18 23 11 12 29 22 20 22 20 28 48 37 36 56 61 39 48 63 41 38 50 32 18 23 24 25 26 27 27 27
11 11 12 11 12 12 11 10 10 8 13 16 14 12 12 17 59 67 51 15 25 17 9 21 21 20 23 20 24 42 43 40 64 72 78 64 64 65 72 44 41 26 23 25 25 25 25 25 24
10 15 11 10 10 12 12 12 10 10 11 10 12 14 16 15 54 67 63 40 24 25 10 12 20 20 23 20 24 33 41 45 53 59 63 64 58 71 82 45 42 37 30 24 23 23 23 21 20
12 13 11 8 8 11 11 12 12 10 17 12 11 13 36 26 45 80 67 52 48 38 21 10 16 18 21 22 26 24 32 38 35 33 43 64 52 70 69 48 35 32 38 22 20 18 18 22 25
12 11 10 8 6 7 12 12 14 13 12 9 10 11 18 24 63 54 63 73 74 35 29 13 11 16 20 22 22 27 30 32 40 29 75 68 70 63 51 43 31 24 26 20 19 20 27 28 32
11 10 8 7 5 10 12 14 20 21 12 10 10 10 11 18 55 57 80 89 48 60 32 22 13 14 18 22 20 22 25 30 41 52 51 47 73 73 74 44 37 27 21 19 21 41 32 30 26
11 11 8 8 8 13 12 13 33 33 19 11 11 11 11 22 60 82 83 42 28 32 45 32 18 10 18 20 22 26 26 23 26 23 22 20 22 32 42 31 40 30 20 19 22 36 30 27 27
11 9 9 8 10 13 10 12 30 34 16 11 11 11 12 15 16 28 39 16 17 17 40 47 32 14 12 20 23 23 23 23 20 20 22 21 21 21 21 21 20 19 18 17 22 30 32 36 35
11 11 9 7 8 10 9 12 26 33 22 18 13 13 12 12 13 14 17 18 17 18 81 50 32 27 15 14 21 23 23 24 25 21 21 22 21 22 22 20 18 16 15 13 22 27 30 34 36
17 11 11 9 9 12 12 15 25 36 26 18 17 14 12 12 12 16 17 17 18 18 32 78 67 42 23 14 15 23 23 26 26 23 22 21 20 22 20 17 14 14 14 14 18 25 25 28 35
20 14 14 13 11 10 9 17 21 36 27 20 15 14 14 15 14 15 19 19 20 19 14 19 47 60 42 29 17 14 23 26 25 23 21 20 20 21 18 17 17 20 17 18 20 20 24 28 30

GFSSGP_250_rhum_045.txt.gz
RH
26 49 44 44 70 85 46 43 65 57 82 100 99 96 100 95 77 99 50 31 30 14 12 12 22 19 20 22 31 26 20 38 39 40 43 54 70 64 84 44 45 36 22 22 19 22 51 70 51
27 34 44 79 99 97 38 64 66 56 34 62 81 100 77 89 81 74 32 21 20 14 11 12 20 12 19 28 32 20 20 29 26 48 80 72 50 46 51 48 24 15 16 18 32 50 72 79 92
27 40 44 44 91 69 33 36 96 74 77 93 100 92 94 71 100 77 48 41 25 14 12 13 20 11 26 31 29 39 41 27 30 65 82 85 66 75 44 30 21 20 16 32 57 55 87 97 66
38 30 33 99 99 71 36 59 96 92 100 100 99 100 77 100 88 78 61 44 29 23 10 11 20 12 25 31 39 50 62 35 38 38 47 54 51 36 24 30 30 23 19 39 46 82 95 81 93
32 40 31 49 100 72 99 89 68 86 82 100 100 82 100 100 83 81 59 48 35 34 10 11 16 18 25 43 53 70 80 50 26 26 29 33 32 35 40 39 33 26 42 60 67 71 100 68 72
23 36 33 56 100 89 67 100 95 95 100 100 92 97 97 100 93 86 66 48 41 32 14 12 12 22 33 60 55 53 66 78 34 27 27 29 35 40 45 36 45 51 49 57 86 90 73 60 68
26 35 35 46 76 83 72 84 89 100 99 72 100 100 100 100 100 85 75 46 26 22 14 12 13 27 39 54 33 49 34 40 44 38 36 32 33 37 37 49 50 54 48 47 64 58 53 50 41
23 39 40 64 74 70 64 64 71 85 100 100 82 87 100 100 97 89 78 42 12 11 10 13 13 24 43 38 41 40 29 26 23 27 29 32 40 36 46 48 54 53 47 50 51 50 42 42 35
23 28 32 40 44 56 52 65 53 93 64 86 100 100 100 72 76 95 66 27 10 8 12 16 15 24 46 34 52 56 28 30 20 16 24 25 40 48 52 61 53 59 77 62 57 51 42 36 34
22 24 26 38 45 46 53 48 45 41 59 89 100 100 68 71 97 92 79 11 12 8 15 14 20 24 54 34 37 44 39 33 17 16 22 34 44 52 55 54 55 64 48 44 58 45 40 40 41
21 22 22 25 35 38 53 46 44 50 87 81 74 54 54 96 100 91 66 28 8 11 14 17 22 25 50 30 31 36 28 23 18 18 24 27 35 36 46 50 56 49 42 42 46 43 32 33 49
20 21 24 22 25 37 36 35 43 61 55 42 34 39 61 76 100 91 66 31 9 13 12 17 25 21 53 29 24 30 42 21 18 20 28 36 29 41 49 46 47 46 45 48 43 40 34 30 38
16 16 21 22 27 26 28 29 33 69 84 69 78 100 100 100 100 86 53 20 11 11 13 17 25 20 47 42 29 31 43 22 20 23 31 34 30 38 44 38 42 48 45 44 43 39 35 33 34
14 15 15 19 22 22 25 26 30 38 64 93 100 91 100 100 100 55 29 13 13 10 12 17 25 21 53 46 31 36 49 23 24 25 27 30 31 34 32 63 44 45 36 37 44 44 41 36 33
8 11 13 13 14 20 20 20 22 24 31 50 49 52 87 77 88 35 26 12 12 9 13 21 24 22 69 54 30 34 58 24 24 27 31 33 33 30 20 54 49 38 32 34 38 41 37 36 32
14 11 8 9 11 12 13 19 19 18 19 26 32 42 50 66 41 25 28 12 10 9 11 24 26 22 41 63 25 39 50 25 27 30 31 35 26 24 21 21 23 27 30 31 34 37 38 38 36
20 18 10 8 7 7 7 9 11 12 13 14 12 18 29 31 29 18 40 13 10 11 10 16 26 20 27 57 26 39 45 28 25 25 27 32 26 23 28 21 20 23 27 30 30 29 32 33 33
18 13 8 8 8 8 7 7 7 8 8 8 9 14 30 17 16 34 52 19 10 10 13 18 21 18 26 56 29 36 40 32 30 28 26 25 30 33 28 20 19 28 30 25 25 23 25 26 27
12 15 10 10 9 10 10 9 8 8 8 8 15 52 36 23 23 55 53 22 14 10 12 20 16 17 18 69 38 27 41 29 29 29 29 26 28 31 34 24 21 19 20 23 22 23 22 21 21
10 12 14 11 10 10 10 9 10 9 8 14 41 57 62 23 29 52 50 24 16 12 10 20 17 16 17 22 59 31 39 44 33 33 35 46 33 38 54 24 36 23 34 25 22 20 20 20 20
10 10 12 12 10 11 9 11 12 10 9 10 15 23 33 14 23 56 44 23 14 18 12 13 17 16 17 15 36 43 31 46 46 41 40 64 55 55 53 38 33 25 58 43 27 22 21 21 21
13 11 10 10 10 11 10 12 12 11 10 8 12 18 15 13 15 58 44 35 22 27 16 13 16 17 17 17 34 46 37 35 59 56 70 67 50 56 55 42 45 41 38 45 19 19 22 26 26
16 14 10 9 9 10 10 11 13 12 14 10 12 13 12 11 12 34 55 52 29 41 29 15 16 16 17 15 25 41 37 39 53 57 63 74 54 57 59 37 38 48 41 33 20 28 23 28 25
17 11 9 7 8 7 10 12 12 13 14 10 10 11 14 26 13 33 66 54 62 52 36 19 12 15 17 15 16 29 40 39 44 46 47 67 51 55 53 44 34 24 23 19 17 38 30 27 27
11 12 8 6 6 10 11 12 17 14 12 12 11 10 10 19 12 26 47 56 67 69 48 32 17 15 17 16 14 21 27 33 34 33 46 74 69 68 66 62 36 29 21 18 18 26 31 32 35
10 10 8 6 7 11 10 11 24 17 12 12 12 11 11 22 15 39 48 61 82 45 45 44 28 11 14 17 17 15 21 29 33 48 51 51 35 45 41 52 34 33 28 19 19 27 33 38 37
12 9 8 7 7 9 10 12 37 27 13 12 12 12 13 15 14 23 37 72 91 30 26 27 42 31 15 16 20 19 19 24 27 34 38 29 21 30 30 24 28 21 19 19 19 22 32 36 36
17 14 8 6 7 7 8 10 35 28 20 12 12 13 14 13 15 23 44 47 81 35 17 17 45 52 30 14 16 20 22 26 27 22 21 22 22 21 21 21 21 20 18 15 16 20 26 31 32
20 11 8 6 8 9 9 11 34 43 29 21 12 14 13 13 14 19 52 19 60 26 16 18 47 70 36 22 14 18 21 22 24 24 23 22 22 21 21 21 21 19 15 14 15 18 22 26 28
15 13 8 7 8 9 8 9 21 57 30 24 17 13 12 12 13 12 12 14 18 17 16 17 32 65 46 35 24 14 19 22 23 24 25 25 23 23 23 22 21 17 15 20 20 21 23 24 27

GFSSGP_250_rhum_048.txt.gz
RH
27 42 42 38 59 49 48 40 49 87 55 58 98 81 99 52 96 92 62 52 39 36 12 11 27 14 33 34 24 31 26 26 43 42 57 62 67 79 56 48 23 22 34 21 29 30 31 53 53
24 37 42 46 100 100 67 38 61 67 46 51 68 100 82 65 99 88 77 67 47 36 22 11 20 24 34 30 44 41 27 51 62 61 55 50 74 76 42 24 21 19 34 38 55 78 81 73 80
25 27 42 34 52 84 56 40 48 68 62 98 82 68 64 100 100 85 43 74 49 36 29 11 16 25 40 52 48 51 38 43 58 68 60 67 60 33 28 33 23 21 51 51 73 58 77 52 73
23 28 36 43 45 58 75 64 62 64 100 94 83 100 98 100 95 78 74 80 62 27 18 12 16 28 48 54 63 68 37 22 32 46 50 54 39 48 38 26 28 56 63 60 82 78 71 87 100
31 50 37 98 70 93 94 92 76 92 77 50 100 100 100 89 71 99 97 74 54 23 12 13 24 32 62 52 55 68 50 27 25 31 55 39 43 33 35 54 59 56 73 86 71 69 69 58 65
30 30 70 51 64 100 96 100 81 91 98 91 86 87 100 97 100 95 88 79 53 15 12 13 24 33 62 36 51 40 42 32 25 30 32 33 39 46 58 59 53 54 75 67 52 44 39 56 62
24 48 52 52 52 94 99 97 88 100 100 90 81 100 92 79 83 100 74 65 55 26 14 16 18 33 56 36 23 19 22 23 44 44 26 36 43 54 50 46 47 45 46 46 33 29 45 36 44
20 23 31 51 53 77 100 92 78 100 100 100 100 93 61 81 82 69 80 75 53 26 10 17 19 44 40 47 17 17 20 39 22 23 37 40 46 49 52 57 56 72 52 35 30 29 44 59 45
20 29 44 38 45 60 90 77 68 84 100 90 86 52 69 73 89 64 82 80 64 16 14 17 27 63 49 52 26 20 22 18 22 36 46 58 56 57 73 79 48 50 46 38 35 45 68 76 73
23 26 28 34 42 56 66 56 51 60 60 54 48 35 42 68 51 51 99 80 61 12 15 20 28 52 58 37 31 24 20 21 35 41 42 50 46 52 58 38 40 45 36 33 43 46 56 74 62
22 23 24 27 31 41 48 46 51 50 47 43 42 36 45 33 62 92 98 81 49 12 13 17 38 45 49 32 18 18 21 21 32 34 35 42 41 47 39 43 45 39 39 32 34 50 70 64 65
22 23 23 25 27 26 32 36 39 38 35 36 42 34 36 68 100 100 91 51 26 12 14 19 38 46 28 24 23 18 21 23 28 30 32 33 38 42 44 40 43 40 36 33 34 38 50 54 70
19 21 22 22 28 28 26 26 39 36 32 28 31 32 65 100 86 99 58 49 15 11 15 18 26 52 31 25 24 18 19 24 29 30 30 40 46 75 29 35 37 43 41 38 34 34 42 38 39
15 16 18 16 21 24 24 26 28 29 30 30 33 46 72 72 62 34 52 40 15 10 13 18 17 49 49 26 28 17 20 26 32 35 34 33 43 94 59 44 40 41 38 36 33 29 32 36 34
11 14 15 16 16 18 20 22 24 25 26 29 28 26 23 33 34 42 36 39 12 9 11 17 16 37 58 26 26 18 23 27 32 27 30 26 41 93 38 38 30 37 37 34 35 34 32 29 29
12 10 10 13 15 15 14 16 17 20 23 24 22 21 19 22 24 31 36 33 10 9 12 18 15 42 62 26 19 20 23 28 31 32 29 23 20 81 65 25 29 29 30 29 31 32 32 31 31
18 14 8 8 12 14 15 14 14 14 14 17 19 17 14 17 20 17 23 36 10 9 12 21 16 41 63 26 24 18 22 27 30 31 29 23 27 18 19 29 67 32 24 23 24 25 26 27 28
14 13 8 7 8 11 12 12 12 12 11 11 12 11 11 10 17 17 38 34 10 12 13 14 14 22 54 30 28 20 19 24 27 32 31 32 33 23 18 87 53 56 25 22 22 21 22 22 22
14 12 11 12 10 8 7 7 7 7 7 7 8 10 8 13 20 20 47 36 11 12 11 22 14 15 42 31 29 31 20 22 24 25 28 33 34 39 25 38 26 28 22 21 20 18 20 22 23
14 13 12 11 11 11 10 10 10 8 8 9 9 8 14 24 22 34 46 22 14 11 14 20 16 15 37 42 27 35 25 23 27 30 31 32 40 42 67 35 36 79 52 30 30 19 19 27 26
15 15 12 9 10 12 12 11 11 10 10 9 8 10 16 15 12 36 41 22 13 13 11 18 17 15 16 56 39 23 30 26 30 33 49 51 56 51 44 41 81 68 36 27 19 21 23 33 24
16 17 13 10 9 10 10 12 11 10 10 10 9 11 16 14 11 20 37 26 18 18 12 18 18 16 16 16 54 34 34 35 34 34 53 65 63 59 41 98 50 77 72 26 44 20 21 22 23
16 14 11 10 10 7 10 13 12 12 12 11 9 10 18 11 11 13 38 36 29 32 19 14 19 17 18 16 27 42 24 29 39 38 50 60 53 60 46 89 68 51 28 38 78 28 22 21 24
13 13 11 9 8 6 9 12 13 13 14 11 10 10 15 10 10 13 36 43 41 38 31 14 15 17 18 17 18 38 30 29 40 44 44 39 49 61 52 45 36 44 30 24 71 59 30 32 31
10 10 11 8 7 11 10 10 15 15 14 12 10 10 8 10 11 12 15 49 36 36 41 24 16 18 17 18 15 24 35 31 37 40 33 28 42 53 58 50 38 30 30 19 36 53 47 43 35
10 8 8 8 9 18 9 10 12 16 15 14 12 11 9 11 17 18 33 51 37 47 50 42 29 14 17 16 17 16 25 32 30 32 30 36 47 50 48 45 34 37 29 18 17 33 38 37 33
15 9 10 7 9 14 7 11 12 13 14 15 13 12 12 13 16 21 26 29 30 44 42 44 41 27 15 17 19 18 17 22 26 27 34 45 42 26 24 25 23 28 20 18 16 17 26 32 34
9 17 8 5 6 9 9 11 11 11 12 13 15 13 13 14 14 18 30 30 20 30 31 30 29 45 31 17 19 20 20 21 25 31 39 49 43 20 19 22 21 20 20 17 14 15 19 26 27
8 9 8 5 5 10 14 11 12 12 11 11 14 14 14 14 16 15 14 17 15 19 33 16 15 36 63 33 21 21 22 22 28 26 25 27 24 22 21 20 20 20 20 16 14 17 19 21 22
9 8 7 6 6 7 11 11 12 22 11 10 10 14 15 13 14 14 12 12 19 26 44 34 14 22 62 67 27 21 20 21 26 31 27 23 22 23 23 22 21 21 20 16 18 26 26 25 23